TimeEST,TemperatureF,Dew PointF,Humidity,Sea Level PressureIn,VisibilityMPH,Wind Direction,Wind SpeedMPH,Gust SpeedMPH,PrecipitationIn,Events,Conditions,WindDirDegrees,DateUTC
12:56 AM,66.0,63.0,90,30.05,10.0,SSW,6.9,-,N/A,,Clear,200,2013-01-16 05:56:00
1:56 AM,66.0,63.0,90,30.05,10.0,SW,5.8,-,N/A,,Clear,220,2013-01-16 06:56:00
2:56 AM,66.0,63.0,90,30.04,10.0,SSW,8.1,-,0.01,,Clear,210,2013-01-16 07:56:00
3:56 AM,66.0,62.1,87,30.04,10.0,SSW,6.9,-,N/A,,Clear,210,2013-01-16 08:56:00
4:56 AM,66.0,62.1,87,30.02,10.0,SSW,10.4,-,N/A,,Clear,210,2013-01-16 09:56:00
5:56 AM,64.9,61.0,87,30.03,10.0,SSW,5.8,-,N/A,,Clear,210,2013-01-16 10:56:00
6:56 AM,63.0,61.0,93,30.04,10.0,South,4.6,-,N/A,,Scattered Clouds,190,2013-01-16 11:56:00
7:56 AM,63.0,61.0,93,30.05,5.0,SSW,4.6,-,N/A,,Mostly Cloudy,210,2013-01-16 12:56:00
8:56 AM,66.9,62.1,84,30.07,10.0,SW,5.8,-,N/A,,Mostly Cloudy,220,2013-01-16 13:56:00
9:56 AM,69.1,61.0,75,30.08,10.0,SW,8.1,-,N/A,,Mostly Cloudy,220,2013-01-16 14:56:00
10:56 AM,73.0,61.0,66,30.06,10.0,SW,13.8,-,N/A,,Mostly Cloudy,230,2013-01-16 15:56:00
11:56 AM,75.0,60.1,60,30.04,10.0,SW,12.7,20.7,N/A,,Scattered Clouds,230,2013-01-16 16:56:00
12:56 PM,75.0,61.0,62,30.01,10.0,South,8.1,-,N/A,,Scattered Clouds,180,2013-01-16 17:56:00
1:56 PM,75.9,61.0,60,29.99,10.0,South,8.1,-,N/A,,Scattered Clouds,180,2013-01-16 18:56:00
2:56 PM,75.9,61.0,60,29.97,10.0,South,10.4,-,N/A,,Scattered Clouds,180,2013-01-16 19:56:00
3:56 PM,73.9,62.1,66,29.97,10.0,South,12.7,18.4,N/A,,Scattered Clouds,190,2013-01-16 20:56:00
4:56 PM,73.0,61.0,66,29.98,10.0,South,9.2,18.4,N/A,,Clear,190,2013-01-16 21:56:00
5:56 PM,69.1,60.1,73,29.99,10.0,South,6.9,-,N/A,,Clear,190,2013-01-16 22:56:00
6:56 PM,64.9,60.1,84,30.00,10.0,South,5.8,-,N/A,,Clear,180,2013-01-16 23:56:00
7:56 PM,64.0,60.1,87,30.01,10.0,South,4.6,-,N/A,,Clear,180,2013-01-17 00:56:00
8:56 PM,66.0,60.1,81,30.01,10.0,SSW,6.9,-,N/A,,Clear,210,2013-01-17 01:56:00
9:56 PM,66.0,60.1,81,30.01,10.0,SSW,6.9,-,N/A,,Clear,200,2013-01-17 02:56:00
10:56 PM,66.0,60.1,81,30.00,10.0,SSW,11.5,19.6,N/A,,Clear,200,2013-01-17 03:56:00
11:56 PM,66.0,60.1,81,30.00,10.0,SSW,5.8,-,N/A,,Partly Cloudy,210,2013-01-17 04:56:00